| time (UTC) | temp C | wind direction | speed KPH | gust KPH | rain 1hr cm | rain 24hr cm | rain mn cm | humidity % | barometer mb |
| 20260905034542 | 20 | 333 | 0.0 | 1.6 | 0.00 | 0.00 | 0.00 | 88 | 1007.2 |
| 20260905030033 | 21 | 166 | 0.0 | 0.0 | 0.00 | 0.00 | 0.00 | 92 | 1006.7 |
| 20260905024510 | 21 | 164 | 0.0 | 0.0 | 0.00 | 0.00 | 0.00 | 92 | 1006.6 |
| 20260905023041 | 21 | 164 | 0.0 | 0.0 | 0.00 | 0.00 | 0.00 | 92 | 1006.7 |
| 20260905021506 | 21 | 179 | 0.0 | 0.0 | 0.00 | 0.00 | 0.00 | 92 | 1006.6 |
| 20260905020036 | 21 | 179 | 0.0 | 0.0 | 0.00 | 0.00 | 0.00 | 92 | 1006.9 |
| 20260905014501 | 21 | 179 | 0.0 | 0.0 | 0.00 | 0.00 | 0.00 | 91 | 1007.1 |
| 20260905013047 | 21 | 179 | 0.0 | 0.0 | 0.00 | 0.00 | 0.00 | 91 | 1007.2 |
| 20260905011515 | 21 | 179 | 0.0 | 0.0 | 0.00 | 0.00 | 0.00 | 90 | 1007.3 |
| 20260905004533 | 21 | 179 | 0.0 | 9.7 | 0.00 | 0.00 | 0.00 | 91 | 1007.4 |
| 20260905003104 | 22 | 146 | 1.6 | 4.8 | 0.00 | 0.00 | 0.00 | 91 | 1007.1 |
| 20260905001535 | 22 | 134 | 3.2 | 9.7 | 0.00 | 0.00 | 0.00 | 91 | 1007.0 |
| 20260905000000 | 21 | 173 | 0.0 | 0.0 | 0.00 | 0.00 | 0.00 | 90 | 1006.6 |
| 20260904234531 | 22 | 173 | 0.0 | 1.6 | 0.00 | 0.00 | 0.00 | 90 | 1006.6 |
| 20260904224520 | 23 | 143 | 4.8 | 11.3 | 0.00 | 0.00 | 0.00 | 87 | 1006.6 |
| 20260904223103 | 23 | 119 | 3.2 | 9.7 | 0.00 | 0.00 | 0.00 | 87 | 1006.4 |
| 20260904221530 | 24 | 176 | 0.0 | 4.8 | 0.00 | 0.00 | 0.00 | 83 | 1006.1 |
| 20260904220113 | 25 | 174 | 1.6 | 6.4 | 0.00 | 0.00 | 0.00 | 81 | 1006.2 |
| 20260904214542 | 25 | 173 | 1.6 | 8.0 | 0.00 | 0.00 | 0.00 | 82 | 1006.0 |
| 20260904213004 | 25 | 189 | 1.6 | 9.7 | 0.00 | 0.00 | 0.00 | 82 | 1005.9 |
| 20260904211534 | 25 | 133 | 1.6 | 8.0 | 0.00 | 0.00 | 0.00 | 81 | 1006.1 |
| 20260904210003 | 25 | 196 | 4.8 | 9.7 | 0.00 | 0.00 | 0.00 | 80 | 1006.2 |
| 20260904204539 | 25 | 168 | 0.0 | 9.7 | 0.00 | 0.00 | 0.00 | 80 | 1006.4 |
| 20260904194601 | 26 | 156 | 3.2 | 9.7 | 0.00 | 0.00 | 0.00 | 74 | 1006.2 |
| 20260904193115 | 27 | 189 | 1.6 | 11.3 | 0.00 | 0.00 | 0.00 | 74 | 1006.4 |
| 20260904191532 | 27 | 164 | 3.2 | 9.7 | 0.00 | 0.00 | 0.00 | 71 | 1006.4 |
| 20260904190115 | 27 | 190 | 3.2 | 8.0 | 0.00 | 0.00 | 0.00 | 72 | 1006.3 |
| 20260904184529 | 27 | 124 | 4.8 | 11.3 | 0.00 | 0.00 | 0.00 | 73 | 1006.2 |
| 20260904183102 | 27 | 202 | 8.0 | 12.9 | 0.00 | 0.00 | 0.00 | 73 | 1006.3 |
| 20260904181523 | 27 | 124 | 3.2 | 11.3 | 0.00 | 0.00 | 0.00 | 75 | 1006.2 |
| 20260904180100 | 27 | 191 | 1.6 | 12.9 | 0.00 | 0.00 | 0.00 | 78 | 1006.5 |
| 20260904174525 | 26 | 187 | 0.0 | 11.3 | 0.00 | 0.00 | 0.00 | 79 | 1006.7 |
| 20260904173126 | 26 | 146 | 1.6 | 9.7 | 0.00 | 0.00 | 0.00 | 79 | 1006.8 |
| 20260904171538 | 25 | 181 | 3.2 | 12.9 | 0.00 | 0.00 | 0.00 | 81 | 1006.8 |
| 20260904170113 | 25 | 89 | 8.0 | 12.9 | 0.00 | 0.00 | 0.00 | 80 | 1006.8 |
| 20260904164527 | 25 | 114 | 8.0 | 12.9 | 0.00 | 0.00 | 0.00 | 82 | 1006.9 |
| 20260904163053 | 25 | 105 | 4.8 | 16.1 | 0.00 | 0.00 | 0.00 | 86 | 1006.9 |
| 20260904161519 | 24 | 156 | 6.4 | 14.5 | 0.00 | 0.00 | 0.00 | 86 | 1007.1 |
| 20260904160047 | 24 | 166 | 8.0 | 14.5 | 0.00 | 0.00 | 0.00 | 87 | 1007.0 |
| 20260904154509 | 25 | 78 | 3.2 | 12.9 | 0.00 | 0.00 | 0.00 | 86 | 1007.2 |
| 20260904153046 | 24 | 76 | 4.8 | 14.5 | 0.00 | 0.00 | 0.00 | 85 | 1007.2 |
| 20260904151510 | 27 | 14 | 1.6 | 11.3 | 0.00 | 0.00 | 0.00 | 72 | 1007.2 |
| 20260904144510 | 26 | 359 | 3.2 | 11.3 | 0.00 | 0.00 | 0.00 | 75 | 1007.5 |
| 20260904143038 | 26 | 273 | 0.0 | 9.7 | 0.00 | 0.00 | 0.00 | 83 | 1007.5 |
| 20260904141617 | 25 | 273 | 3.2 | 9.7 | 0.00 | 0.00 | 0.00 | 86 | 1007.6 |
| 20260904140039 | 24 | 241 | 4.8 | 12.9 | 0.00 | 0.00 | 0.00 | 88 | 1007.6 |
| 20260904134505 | 24 | 249 | 1.6 | 14.5 | 0.00 | 0.00 | 0.00 | 88 | 1007.7 |
| 20260904133039 | 24 | 274 | 4.8 | 14.5 | 0.00 | 0.05 | 0.00 | 88 | 1007.7 |
| 20260904131610 | 23 | 267 | 4.8 | 12.9 | 0.00 | 0.05 | 0.00 | 89 | 1007.8 |
| 20260904130042 | 23 | 277 | 4.8 | 11.3 | 0.00 | 0.05 | 0.00 | 91 | 1007.9 |
| 20260904124554 | 22 | 255 | 4.8 | 11.3 | 0.00 | 0.05 | 0.00 | 91 | 1007.9 |
| 20260904123012 | 22 | 263 | 6.4 | 12.9 | 0.00 | 0.33 | 0.00 | 92 | 1008.1 |
| 20260904121547 | 22 | 262 | 3.2 | 14.5 | 0.00 | 0.33 | 0.00 | 94 | 1008.1 |
| 20260904120013 | 22 | 266 | 4.8 | 12.9 | 0.00 | 0.33 | 0.00 | 95 | 1008.1 |
| 20260904114554 | 21 | 270 | 4.8 | 11.3 | 0.00 | 0.33 | 0.00 | 95 | 1008.2 |
| 20260904113022 | 21 | 248 | 1.6 | 14.5 | 0.00 | 0.43 | 0.00 | 95 | 1008.3 |
| 20260904111611 | 21 | 258 | 1.6 | 14.5 | 0.00 | 0.43 | 0.00 | 95 | 1008.2 |
| 20260904110036 | 21 | 264 | 1.6 | 6.4 | 0.00 | 0.43 | 0.00 | 95 | 1008.2 |
| 20260904104611 | 21 | 264 | 0.0 | 4.8 | 0.00 | 0.43 | 0.00 | 95 | 1008.2 |
| 20260904103031 | 21 | 264 | 1.6 | 4.8 | 0.00 | 1.65 | 0.00 | 95 | 1007.9 |
| 20260904101609 | 21 | 264 | 0.0 | 0.0 | 0.00 | 1.65 | 0.00 | 95 | 1007.8 |
| 20260904100043 | 21 | 264 | 0.0 | 0.0 | 0.00 | 1.65 | 0.00 | 95 | 1007.7 |
| 20260904094531 | 21 | 264 | 0.0 | 0.0 | 0.00 | 1.65 | 0.00 | 94 | 1007.5 |
| 20260904090007 | 21 | 264 | 0.0 | 6.4 | 0.00 | 2.21 | 0.00 | 94 | 1007.8 |
| 20260904084543 | 21 | 264 | 3.2 | 9.7 | 0.00 | 2.21 | 0.00 | 94 | 1007.8 |
| 20260904083104 | 21 | 275 | 4.8 | 11.3 | 0.00 | 2.24 | 0.00 | 94 | 1007.7 |
| 20260904081537 | 21 | 279 | 1.6 | 4.8 | 0.00 | 2.24 | 0.00 | 94 | 1007.7 |
| 20260904080111 | 21 | 279 | 0.0 | 0.0 | 0.00 | 2.24 | 0.00 | 94 | 1007.6 |
| 20260904074527 | 21 | 279 | 0.0 | 0.0 | 0.00 | 2.24 | 0.00 | 94 | 1007.7 |
| 20260904073106 | 21 | 279 | 0.0 | 0.0 | 0.00 | 2.24 | 0.00 | 94 | 1007.6 |
| 20260904071527 | 21 | 279 | 0.0 | 3.2 | 0.00 | 2.24 | 0.00 | 94 | 1008.2 |
| 20260904070105 | 21 | 279 | 0.0 | 3.2 | 0.00 | 2.24 | 0.00 | 94 | 1008.2 |
| 20260904064517 | 21 | 279 | 0.0 | 3.2 | 0.00 | 2.24 | 0.00 | 94 | 1008.4 |
| 20260904063048 | 21 | 279 | 0.0 | 0.0 | 0.00 | 2.24 | 0.00 | 94 | 1008.4 |
| 20260904061519 | 21 | 279 | 0.0 | 6.4 | 0.00 | 2.24 | 0.00 | 94 | 1008.4 |
| 20260904060100 | 21 | 278 | 0.0 | 6.4 | 0.00 | 2.24 | 0.00 | 94 | 1008.5 |
| 20260904054529 | 21 | 267 | 1.6 | 6.4 | 0.00 | 2.24 | 0.00 | 94 | 1008.6 |
| 20260904044533 | 21 | 277 | 3.2 | 8.0 | 0.00 | 2.24 | 0.00 | 94 | 1009.4 |
| 20260904043109 | 21 | 279 | 1.6 | 8.0 | 0.00 | 2.24 | 2.24 | 94 | 1009.5 |
| 20260904041536 | 21 | 274 | 3.2 | 11.3 | 0.00 | 2.24 | 2.24 | 94 | 1009.5 |
| 20260904040003 | 21 | 272 | 3.2 | 11.3 | 0.00 | 2.24 | 2.24 | 94 | 1009.4 |